Date String (YYYY-MM-DD hh:mm:ss) UTC,Instrument flags,Ambient pressure (hPa),Sample flow (lpm),Bypass flow (lpm),Sample temperature (°C),Ambient temperature (°C),ASC tube jacket temperature (°C),LED temperature (°C),Box temperature (°C),Sample RH (%),Span deviation,Mass concentration (μg/m³),Mass concentration (μg/m³),Mass concentration (μg/m³)
DateTimeUTC,F1_M11,P_M11,Q1_M11,Q2_M11,T1_M11,T2_M11,T3_M11,T4_M11,T5_M11,U1_M11,ZSPAN_M11,X2_M11,X0_M11,X1_M11
2022-06-05 22:00:00,,0818.9,5.00,0.00,29.2,27.3,00.0,37.9,31.0,17.9,0000.0,0002.93,0007.89,0001.21
2022-06-05 22:01:00,,0818.9,5.01,0.00,29.1,26.7,00.0,37.8,30.8,17.9,0000.0,0002.86,0007.96,0001.18
2022-06-05 22:02:00,,0819.0,5.00,0.00,29.0,26.6,00.0,37.8,30.7,17.3,0000.0,0002.83,0008.49,0001.16
2022-06-05 22:03:00,,0819.0,4.99,0.00,29.0,26.7,00.0,37.8,30.7,18.2,0000.0,0002.82,0009.12,0001.16
2022-06-05 22:04:00,,0819.0,5.01,0.00,28.9,26.9,00.0,37.8,30.7,18.7,0000.0,0002.81,0009.66,0001.14
2022-06-05 22:05:00,,0819.0,4.99,0.00,28.9,27.0,00.0,37.8,30.8,18.7,0000.0,0002.80,0009.67,0001.13
2022-06-05 22:06:00,,0819.0,5.01,0.00,28.9,27.2,00.0,37.8,30.8,18.7,0000.0,0002.81,0009.85,0001.14
2022-06-05 22:07:00,,0818.9,5.00,0.00,28.9,27.4,00.0,37.8,30.8,18.5,0000.0,0002.79,0009.75,0001.15
2022-06-05 22:08:00,,0818.9,4.99,0.00,29.0,27.6,00.0,37.8,30.9,19.5,0000.0,0002.87,0009.78,0001.17
2022-06-05 22:09:00,,0818.8,5.00,0.00,29.0,27.7,00.0,37.8,30.9,19.2,0000.0,0002.87,0009.88,0001.21
2022-06-05 22:10:00,,0818.8,5.00,0.00,29.0,27.8,00.0,37.8,31.0,18.7,0000.0,0002.83,0010.19,0001.24
2022-06-05 22:11:00,,0818.8,5.01,0.00,29.0,28.0,00.0,37.8,31.0,19.1,0000.0,0002.96,0010.05,0001.31
2022-06-05 22:12:00,,0818.9,5.00,0.00,29.1,28.1,00.0,37.9,31.0,19.3,0000.0,0002.97,0010.20,0001.34
2022-06-05 22:13:00,,0818.9,5.01,0.00,29.1,28.1,00.0,37.9,31.1,19.4,0000.0,0002.98,0009.58,0001.34
2022-06-05 22:14:00,,0818.8,5.00,0.00,29.1,28.2,00.0,37.9,31.1,19.0,0000.0,0002.97,0009.29,0001.35
2022-06-05 22:15:00,,0818.8,5.00,0.00,29.2,28.3,00.0,37.9,31.2,18.5,0000.0,0003.03,0008.74,0001.36
2022-06-05 22:16:00,,0818.9,5.00,0.00,29.2,28.4,00.0,37.9,31.2,18.7,0000.0,0003.09,0008.84,0001.37
2022-06-05 22:17:00,,0818.9,5.01,0.00,29.2,27.9,00.0,37.9,31.1,19.5,0000.0,0003.16,0008.90,0001.39
2022-06-05 22:18:00,,0818.8,4.99,0.00,29.2,27.3,00.0,37.9,30.9,19.4,0000.0,0003.11,0008.68,0001.38
2022-06-05 22:19:00,,0818.8,5.00,0.00,29.1,27.2,00.0,37.9,30.9,19.0,0000.0,0003.08,0008.65,0001.38
2022-06-05 22:20:00,,0818.8,5.01,0.00,29.1,27.2,00.0,37.9,30.9,19.2,0000.0,0003.15,0008.61,0001.38
2022-06-05 22:21:00,,0818.8,5.00,0.00,29.0,27.3,00.0,37.9,30.9,19.1,0000.0,0003.21,0008.11,0001.37
2022-06-05 22:22:00,,0818.8,5.00,0.00,29.0,27.5,00.0,37.9,30.9,18.9,0000.0,0003.21,0008.07,0001.34
2022-06-05 22:23:00,,0818.9,4.99,0.00,29.0,27.6,00.0,37.9,31.0,18.9,0000.0,0003.27,0008.09,0001.34
2022-06-05 22:24:00,,0818.9,5.01,0.00,29.1,27.8,00.0,37.9,31.0,18.5,0000.0,0003.28,0008.03,0001.35
2022-06-05 22:25:00,,0818.9,5.00,0.00,29.1,27.9,00.0,37.9,31.0,18.5,0000.0,0003.31,0008.06,0001.34
2022-06-05 22:26:00,,0819.0,5.01,0.00,29.1,28.0,00.0,37.9,31.1,17.8,0000.0,0003.30,0008.08,0001.34
2022-06-05 22:27:00,,0818.9,5.01,0.00,29.1,28.1,00.0,37.9,31.1,17.5,0000.0,0003.30,0008.23,0001.33
2022-06-05 22:28:00,,0818.9,5.00,0.00,29.2,28.2,00.0,37.9,31.2,17.3,0000.0,0003.25,0008.24,0001.30
2022-06-05 22:29:00,,0818.9,5.01,0.00,29.2,28.3,00.0,38.0,31.2,17.1,0000.0,0003.24,0008.99,0001.30
2022-06-05 22:30:00,,0819.0,5.00,0.00,29.2,28.3,00.0,38.0,31.2,17.6,0000.0,0003.22,0008.98,0001.29
2022-06-05 22:31:00,,0819.0,4.99,0.00,29.2,27.8,00.0,37.9,31.1,18.4,0000.0,0003.11,0008.76,0001.25
2022-06-05 22:32:00,,0818.9,5.00,0.00,29.1,26.8,00.0,37.9,30.8,18.4,0000.0,0003.07,0008.73,0001.24
2022-06-05 22:33:00,,0819.0,4.99,0.00,29.1,26.6,00.0,37.8,30.8,18.5,0000.0,0003.06,0008.71,0001.22
2022-06-05 22:34:00,,0819.0,5.00,0.00,29.0,26.6,00.0,37.8,30.7,17.7,0000.0,0002.93,0008.56,0001.20
2022-06-05 22:35:00,,0818.9,5.01,0.00,28.9,26.8,00.0,37.8,30.7,17.4,0000.0,0002.89,0008.88,0001.18
2022-06-05 22:36:00,,0819.0,5.00,0.00,28.9,26.9,00.0,37.8,30.7,17.7,0000.0,0002.84,0008.68,0001.16
2022-06-05 22:37:00,,0818.9,4.99,0.00,28.9,27.1,00.0,37.8,30.8,18.0,0000.0,0002.79,0008.52,0001.16
2022-06-05 22:38:00,,0818.9,5.00,0.00,28.9,27.3,00.0,37.8,30.8,18.1,0000.0,0002.74,0008.28,0001.17
2022-06-05 22:39:00,,0818.9,5.01,0.00,28.9,27.5,00.0,37.8,30.9,17.9,0000.0,0002.75,0008.18,0001.19
2022-06-05 22:40:00,,0818.9,5.00,0.00,29.0,27.6,00.0,37.8,30.9,18.4,0000.0,0002.77,0007.43,0001.19
2022-06-05 22:41:00,,0819.0,4.99,0.00,29.0,27.7,00.0,37.8,30.9,17.8,0000.0,0002.79,0007.78,0001.20
2022-06-05 22:42:00,,0818.9,5.01,0.00,29.0,27.9,00.0,37.8,31.0,18.3,0000.0,0002.82,0007.75,0001.24
2022-06-05 22:43:00,,0818.9,5.01,0.00,29.0,28.0,00.0,37.8,31.0,18.3,0000.0,0002.77,0007.58,0001.26
2022-06-05 22:44:00,,0818.9,5.00,0.00,29.1,28.1,00.0,37.9,31.1,18.5,0000.0,0002.72,0007.44,0001.27
2022-06-05 22:45:00,,0818.9,4.98,0.00,29.1,28.2,00.0,37.9,31.1,18.4,0000.0,0002.73,0007.60,0001.29
2022-06-05 22:46:00,,0818.9,5.00,0.00,29.1,28.2,00.0,37.9,31.2,17.9,0000.0,0002.69,0007.78,0001.32
2022-06-05 22:47:00,,0819.0,5.00,0.00,29.2,28.3,00.0,37.9,31.2,17.6,0000.0,0002.72,0007.77,0001.33
2022-06-05 22:48:00,,0818.9,5.02,0.00,29.2,28.4,00.0,37.9,31.2,18.5,0000.0,0002.79,0007.91,0001.34
2022-06-05 22:49:00,,0818.9,5.01,0.00,29.3,28.3,00.0,38.0,31.2,18.5,0000.0,0002.90,0008.32,0001.35
2022-06-05 22:50:00,,0818.9,4.99,0.00,29.2,27.6,00.0,37.9,31.1,18.2,0000.0,0002.91,0008.33,0001.35
2022-06-05 22:51:00,,0818.9,5.00,0.00,29.2,27.3,00.0,37.9,31.0,17.8,0000.0,0002.93,0008.20,0001.37
2022-06-05 22:52:00,,0818.9,5.00,0.00,29.1,27.3,00.0,37.9,31.0,17.3,0000.0,0002.99,0007.91,0001.37
2022-06-05 22:53:00,,0818.9,5.00,0.00,29.1,27.3,00.0,37.9,30.9,17.9,0000.0,0003.08,0008.10,0001.36
2022-06-05 22:54:00,,0818.9,4.99,0.00,29.1,27.5,00.0,37.9,31.0,18.6,0000.0,0003.13,0008.36,0001.36
2022-06-05 22:55:00,,0818.9,5.00,0.00,29.1,27.6,00.0,37.9,31.0,18.5,0000.0,0003.16,0008.47,0001.36
2022-06-05 22:56:00,,0818.9,5.00,0.00,29.1,27.7,00.0,37.9,31.0,18.4,0000.0,0003.19,0008.55,0001.37
2022-06-05 22:57:00,,0818.9,5.01,0.00,29.1,27.9,00.0,37.9,31.1,17.8,0000.0,0003.19,0007.75,0001.35
2022-06-05 22:58:00,,0818.9,5.01,0.00,29.1,28.0,00.0,37.9,31.1,18.6,0000.0,0003.18,0007.77,0001.35
2022-06-05 22:59:00,,0819.0,4.99,0.00,29.2,28.1,00.0,38.0,31.1,18.6,0000.0,0003.18,0007.79,0001.34
